Year,Month,Day,Hour,Minute,Value (Times are PST for temperature in C)
2017,10,26,00,00,8.40
2017,10,26,00,01,8.30
2017,10,26,00,02,8.20
2017,10,26,00,03,8.10
2017,10,26,00,04,8.00
2017,10,26,00,05,7.90
2017,10,26,00,06,7.90
2017,10,26,00,07,7.80
2017,10,26,00,08,7.70
2017,10,26,00,09,7.70
2017,10,26,00,10,7.60
2017,10,26,00,11,7.50
2017,10,26,00,12,7.50
2017,10,26,00,13,7.40
2017,10,26,00,14,7.40
2017,10,26,00,15,7.30
2017,10,26,00,16,7.30
2017,10,26,00,17,7.20
2017,10,26,00,18,7.20
2017,10,26,00,19,7.20
2017,10,26,00,20,7.10
2017,10,26,00,21,7.10
2017,10,26,00,22,7.10
2017,10,26,00,23,7.00
2017,10,26,00,24,7.00
2017,10,26,00,25,7.00
2017,10,26,00,26,6.90
2017,10,26,00,27,6.90
2017,10,26,00,28,6.90
2017,10,26,00,29,6.90
2017,10,26,00,30,6.90
2017,10,26,00,31,6.90
2017,10,26,00,32,6.90
2017,10,26,00,33,6.90
2017,10,26,00,34,6.80
2017,10,26,00,35,6.80
2017,10,26,00,36,6.80
2017,10,26,00,37,6.80
2017,10,26,00,38,6.80
2017,10,26,00,39,6.80
2017,10,26,00,40,6.70
2017,10,26,00,41,6.70
2017,10,26,00,42,6.70
2017,10,26,00,43,6.70
2017,10,26,00,44,6.70
2017,10,26,00,45,6.70
2017,10,26,00,46,6.70
2017,10,26,00,47,6.60
2017,10,26,00,48,6.60
2017,10,26,00,49,6.60
2017,10,26,00,50,6.60
2017,10,26,00,51,6.60
2017,10,26,00,52,6.60
2017,10,26,00,53,6.60
2017,10,26,00,54,6.60
2017,10,26,00,55,6.50
2017,10,26,00,56,6.50
2017,10,26,00,57,6.50
2017,10,26,00,58,6.50
2017,10,26,00,59,6.60
2017,10,26,01,00,6.60
2017,10,26,01,01,6.60
2017,10,26,01,02,6.60
2017,10,26,01,03,6.60
2017,10,26,01,04,6.60
2017,10,26,01,05,6.60
2017,10,26,01,06,6.60
2017,10,26,01,07,6.60
2017,10,26,01,08,6.60
2017,10,26,01,09,6.60
2017,10,26,01,10,6.60
2017,10,26,01,11,6.60
2017,10,26,01,12,6.60
2017,10,26,01,13,6.60
2017,10,26,01,14,6.60
2017,10,26,01,15,6.60
2017,10,26,01,16,6.60
2017,10,26,01,17,6.60
2017,10,26,01,18,6.60
2017,10,26,01,19,6.60
2017,10,26,01,20,6.60
2017,10,26,01,21,6.60
2017,10,26,01,22,6.60
2017,10,26,01,23,6.60
2017,10,26,01,24,6.50
2017,10,26,01,25,6.50
2017,10,26,01,26,6.50
2017,10,26,01,27,6.50
2017,10,26,01,28,6.40
2017,10,26,01,29,6.40
2017,10,26,01,30,6.40
2017,10,26,01,31,6.40
2017,10,26,01,32,6.40
2017,10,26,01,33,6.40
2017,10,26,01,34,6.30
2017,10,26,01,35,6.30
2017,10,26,01,36,6.30
2017,10,26,01,37,6.30
2017,10,26,01,38,6.30
2017,10,26,01,39,6.20
2017,10,26,01,40,6.20
2017,10,26,01,41,6.20
2017,10,26,01,42,6.20
2017,10,26,01,43,6.20
2017,10,26,01,44,6.30
2017,10,26,01,45,6.30
2017,10,26,01,46,6.30
2017,10,26,01,47,6.30
2017,10,26,01,48,6.40
2017,10,26,01,49,6.40
2017,10,26,01,50,6.40
2017,10,26,01,51,6.40
2017,10,26,01,52,6.40
2017,10,26,01,53,6.40
2017,10,26,01,54,6.40
2017,10,26,01,55,6.40
2017,10,26,01,56,6.40
2017,10,26,01,57,6.40
2017,10,26,01,58,6.40
2017,10,26,01,59,6.40
2017,10,26,02,00,6.40
2017,10,26,02,01,6.40
2017,10,26,02,02,6.40
2017,10,26,02,03,6.40
2017,10,26,02,04,6.40
2017,10,26,02,05,6.40
2017,10,26,02,06,6.40
2017,10,26,02,07,6.40
2017,10,26,02,08,6.40
2017,10,26,02,09,6.40
2017,10,26,02,10,6.40
2017,10,26,02,11,6.40
2017,10,26,02,12,6.40
2017,10,26,02,13,6.40
2017,10,26,02,14,6.40
2017,10,26,02,15,6.40
2017,10,26,02,16,6.40
2017,10,26,02,17,6.40
2017,10,26,02,18,6.40
2017,10,26,02,19,6.40
2017,10,26,02,20,6.40
2017,10,26,02,21,6.30
2017,10,26,02,22,6.30
2017,10,26,02,23,6.30
2017,10,26,02,24,6.30
2017,10,26,02,25,6.30
2017,10,26,02,26,6.30
2017,10,26,02,27,6.30
2017,10,26,02,28,6.30
2017,10,26,02,29,6.30
2017,10,26,02,30,6.30
2017,10,26,02,31,6.20
2017,10,26,02,32,6.20
2017,10,26,02,33,6.20
2017,10,26,02,34,6.20
2017,10,26,02,35,6.10
2017,10,26,02,36,6.10
2017,10,26,02,37,6.10
2017,10,26,02,38,6.10
2017,10,26,02,39,6.10
2017,10,26,02,40,6.10
2017,10,26,02,41,6.00
2017,10,26,02,42,6.00
2017,10,26,02,43,6.00
2017,10,26,02,44,6.00
2017,10,26,02,45,6.10
2017,10,26,02,46,6.10
2017,10,26,02,47,6.10
2017,10,26,02,48,6.10
2017,10,26,02,49,6.10
2017,10,26,02,50,6.10
2017,10,26,02,51,6.10
2017,10,26,02,52,6.10
2017,10,26,02,53,6.10
2017,10,26,02,54,6.00
2017,10,26,02,55,6.00
2017,10,26,02,56,6.00
2017,10,26,02,57,6.00
2017,10,26,02,58,6.00
2017,10,26,02,59,6.00
2017,10,26,03,00,6.00
2017,10,26,03,01,6.00
2017,10,26,03,02,6.00
2017,10,26,03,03,6.00
2017,10,26,03,04,6.00
2017,10,26,03,05,6.00
2017,10,26,03,06,6.00
2017,10,26,03,07,6.00
2017,10,26,03,08,6.00
2017,10,26,03,09,6.00
2017,10,26,03,10,6.00
2017,10,26,03,11,6.00
2017,10,26,03,12,6.00
2017,10,26,03,13,5.90
2017,10,26,03,14,5.90
2017,10,26,03,15,5.90
2017,10,26,03,16,6.00
2017,10,26,03,17,6.00
2017,10,26,03,18,6.00
2017,10,26,03,19,6.00
2017,10,26,03,20,6.00
2017,10,26,03,21,5.90
2017,10,26,03,22,5.90
2017,10,26,03,23,5.90
2017,10,26,03,24,5.90
2017,10,26,03,25,5.90
2017,10,26,03,26,5.90
2017,10,26,03,27,5.90
2017,10,26,03,28,6.00
2017,10,26,03,29,6.00
2017,10,26,03,30,6.00
2017,10,26,03,31,6.00
2017,10,26,03,32,6.10
2017,10,26,03,33,6.10
2017,10,26,03,34,6.10
2017,10,26,03,35,6.10
2017,10,26,03,36,6.10
2017,10,26,03,37,6.10
2017,10,26,03,38,6.10
2017,10,26,03,39,6.10
2017,10,26,03,40,6.10
2017,10,26,03,41,6.10
2017,10,26,03,42,6.10
2017,10,26,03,43,6.10
2017,10,26,03,44,6.00
2017,10,26,03,45,6.00
2017,10,26,03,46,6.00
2017,10,26,03,47,6.00
2017,10,26,03,48,6.00
2017,10,26,03,49,5.90
2017,10,26,03,50,5.90
2017,10,26,03,51,5.90
2017,10,26,03,52,6.00
2017,10,26,03,53,5.90
2017,10,26,03,54,5.90
2017,10,26,03,55,5.90
2017,10,26,03,56,5.90
2017,10,26,03,57,5.90
2017,10,26,03,58,5.90
2017,10,26,03,59,5.90
2017,10,26,04,00,5.80
2017,10,26,04,01,5.80
2017,10,26,04,02,5.80
2017,10,26,04,03,5.80
2017,10,26,04,04,5.80
2017,10,26,04,05,5.80
2017,10,26,04,06,5.80
2017,10,26,04,07,5.80
2017,10,26,04,08,5.80
2017,10,26,04,09,5.80
2017,10,26,04,10,5.90
2017,10,26,04,11,5.90
2017,10,26,04,12,5.90
2017,10,26,04,13,5.90
2017,10,26,04,14,5.90
2017,10,26,04,15,5.90
2017,10,26,04,16,5.90
2017,10,26,04,17,5.90
2017,10,26,04,18,5.90
2017,10,26,04,19,6.00
2017,10,26,04,20,6.00
2017,10,26,04,21,5.90
2017,10,26,04,22,5.90
2017,10,26,04,23,5.90
2017,10,26,04,24,5.90
2017,10,26,04,25,5.90
2017,10,26,04,26,5.90
2017,10,26,04,27,5.80
2017,10,26,04,28,5.80
2017,10,26,04,29,5.80
2017,10,26,04,30,5.80
2017,10,26,04,31,5.80
2017,10,26,04,32,5.80
2017,10,26,04,33,5.70
2017,10,26,04,34,5.70
2017,10,26,04,35,5.70
2017,10,26,04,36,5.70
2017,10,26,04,37,5.70
2017,10,26,04,38,5.70
2017,10,26,04,39,5.70
2017,10,26,04,40,5.80
2017,10,26,04,41,5.80
2017,10,26,04,42,5.80
2017,10,26,04,43,5.80
2017,10,26,04,44,5.90
2017,10,26,04,45,5.90
2017,10,26,04,46,5.90
2017,10,26,04,47,5.90
2017,10,26,04,48,6.00
2017,10,26,04,49,6.00
2017,10,26,04,50,6.10
2017,10,26,04,51,6.10
2017,10,26,04,52,6.10
2017,10,26,04,53,6.10
2017,10,26,04,54,6.10
2017,10,26,04,55,6.10
2017,10,26,04,56,6.10
2017,10,26,04,57,6.10
2017,10,26,04,58,6.10
2017,10,26,04,59,6.10
2017,10,26,05,00,6.10
2017,10,26,05,01,6.10
2017,10,26,05,02,6.10
2017,10,26,05,03,6.10
2017,10,26,05,04,6.10
2017,10,26,05,05,6.10
2017,10,26,05,06,6.10
2017,10,26,05,07,6.10
2017,10,26,05,08,6.10
2017,10,26,05,09,6.10
2017,10,26,05,10,6.10
2017,10,26,05,11,6.10
2017,10,26,05,12,6.00
2017,10,26,05,13,6.00
2017,10,26,05,14,6.00
2017,10,26,05,15,6.00
2017,10,26,05,16,6.00
2017,10,26,05,17,6.10
2017,10,26,05,18,6.10
2017,10,26,05,19,6.10
2017,10,26,05,20,6.10
2017,10,26,05,21,6.10
2017,10,26,05,22,6.10
2017,10,26,05,23,6.10
2017,10,26,05,24,6.10
2017,10,26,05,25,6.10
2017,10,26,05,26,6.10
2017,10,26,05,27,6.10
2017,10,26,05,28,6.00
2017,10,26,05,29,6.00
2017,10,26,05,30,6.00
2017,10,26,05,31,5.90
2017,10,26,05,32,5.90
2017,10,26,05,33,5.90
2017,10,26,05,34,5.80
2017,10,26,05,35,5.80
2017,10,26,05,36,5.80
2017,10,26,05,37,5.80
2017,10,26,05,38,5.70
2017,10,26,05,39,5.70
2017,10,26,05,40,5.70
2017,10,26,05,41,5.60
2017,10,26,05,42,5.60
2017,10,26,05,43,5.50
2017,10,26,05,44,5.50
2017,10,26,05,45,5.40
2017,10,26,05,46,5.40
2017,10,26,05,47,5.40
2017,10,26,05,48,5.30
2017,10,26,05,49,5.30
2017,10,26,05,50,5.30
2017,10,26,05,51,5.20
2017,10,26,05,52,5.20
2017,10,26,05,53,5.20
2017,10,26,05,54,5.20
2017,10,26,05,55,5.20
2017,10,26,05,56,5.20
2017,10,26,05,57,5.20
2017,10,26,05,58,5.20
2017,10,26,05,59,5.20
2017,10,26,06,00,5.20
2017,10,26,06,01,5.20
2017,10,26,06,02,5.20
2017,10,26,06,03,5.20
2017,10,26,06,04,5.20
2017,10,26,06,05,5.20
2017,10,26,06,06,5.20
2017,10,26,06,07,5.20
2017,10,26,06,08,5.10
2017,10,26,06,09,5.10
2017,10,26,06,10,5.10
2017,10,26,06,11,5.10
2017,10,26,06,12,5.10
2017,10,26,06,13,5.00
2017,10,26,06,14,5.00
2017,10,26,06,15,5.00
2017,10,26,06,16,5.00
2017,10,26,06,17,4.90
2017,10,26,06,18,4.90
2017,10,26,06,19,4.90
2017,10,26,06,20,4.90
2017,10,26,06,21,4.90
2017,10,26,06,22,4.90
2017,10,26,06,23,5.00
2017,10,26,06,24,5.00
2017,10,26,06,25,5.00
2017,10,26,06,26,5.00
2017,10,26,06,27,5.00
2017,10,26,06,28,5.10
2017,10,26,06,29,5.10
2017,10,26,06,30,5.10
2017,10,26,06,31,5.10
2017,10,26,06,32,5.10
2017,10,26,06,33,5.20
2017,10,26,06,34,5.20
2017,10,26,06,35,5.20
2017,10,26,06,36,5.20
2017,10,26,06,37,5.30
2017,10,26,06,38,5.30
2017,10,26,06,39,5.30
2017,10,26,06,40,5.30
2017,10,26,06,41,5.30
2017,10,26,06,42,5.30
2017,10,26,06,43,5.30
2017,10,26,06,44,5.30
2017,10,26,06,45,5.30
2017,10,26,06,46,5.30
2017,10,26,06,47,5.40
2017,10,26,06,48,5.40
2017,10,26,06,49,5.40
2017,10,26,06,50,5.40
2017,10,26,06,51,5.40
2017,10,26,06,52,5.40
2017,10,26,06,53,5.40
2017,10,26,06,54,5.40
2017,10,26,06,55,5.40
2017,10,26,06,56,5.40
2017,10,26,06,57,5.40
2017,10,26,06,58,5.40
2017,10,26,06,59,5.40
2017,10,26,07,00,5.40
2017,10,26,07,01,5.40
2017,10,26,07,02,5.40
2017,10,26,07,03,5.40
2017,10,26,07,04,5.40
2017,10,26,07,05,5.40
2017,10,26,07,06,5.40
2017,10,26,07,07,5.40
2017,10,26,07,08,5.40
2017,10,26,07,09,5.40
2017,10,26,07,10,5.50
2017,10,26,07,11,5.50
2017,10,26,07,12,5.60
2017,10,26,07,13,5.60
2017,10,26,07,14,5.70
2017,10,26,07,15,5.70
2017,10,26,07,16,5.70
2017,10,26,07,17,5.70
2017,10,26,07,18,5.70
2017,10,26,07,19,5.80
2017,10,26,07,20,5.80
2017,10,26,07,21,5.80
2017,10,26,07,22,5.80
2017,10,26,07,23,5.90
2017,10,26,07,24,5.90
2017,10,26,07,25,5.90
2017,10,26,07,26,5.90
2017,10,26,07,27,5.90
2017,10,26,07,28,5.90
2017,10,26,07,29,6.00
2017,10,26,07,30,6.00
2017,10,26,07,31,6.00
2017,10,26,07,32,6.00
2017,10,26,07,33,5.90
2017,10,26,07,34,5.90
2017,10,26,07,35,5.90
2017,10,26,07,36,5.90
2017,10,26,07,37,5.90
2017,10,26,07,38,5.90
2017,10,26,07,39,5.90
2017,10,26,07,40,5.90
2017,10,26,07,41,5.90
2017,10,26,07,42,5.90
2017,10,26,07,43,5.80
2017,10,26,07,44,5.80
2017,10,26,07,45,5.80
2017,10,26,07,46,5.80
2017,10,26,07,47,5.80
2017,10,26,07,48,5.70
2017,10,26,07,49,5.70
2017,10,26,07,50,5.70
2017,10,26,07,51,5.70
2017,10,26,07,52,5.70
2017,10,26,07,53,5.70
2017,10,26,07,54,5.70
2017,10,26,07,55,5.70
2017,10,26,07,56,5.70
2017,10,26,07,57,5.70
2017,10,26,07,58,5.70
2017,10,26,07,59,5.80
2017,10,26,08,00,5.80
2017,10,26,08,01,5.80
2017,10,26,08,02,5.80
2017,10,26,08,03,5.80
2017,10,26,08,04,5.80
2017,10,26,08,05,5.80
2017,10,26,08,06,5.80
2017,10,26,08,07,5.80
2017,10,26,08,08,5.80
2017,10,26,08,09,5.80
2017,10,26,08,10,5.80
2017,10,26,08,11,5.80
2017,10,26,08,12,5.80
2017,10,26,08,13,5.80
2017,10,26,08,14,5.80
2017,10,26,08,15,5.80
2017,10,26,08,16,5.70
2017,10,26,08,17,5.70
2017,10,26,08,18,5.70
2017,10,26,08,19,5.70
2017,10,26,08,20,5.70
2017,10,26,08,21,5.70
2017,10,26,08,22,5.70
2017,10,26,08,23,5.70
2017,10,26,08,24,5.70
2017,10,26,08,25,5.70
2017,10,26,08,26,5.70
2017,10,26,08,27,5.70
2017,10,26,08,28,5.70
2017,10,26,08,29,5.70
2017,10,26,08,30,5.70
2017,10,26,08,31,5.70
2017,10,26,08,32,5.80
2017,10,26,08,33,5.80
2017,10,26,08,34,5.80
2017,10,26,08,35,5.80
2017,10,26,08,36,5.80
2017,10,26,08,37,5.80
2017,10,26,08,38,5.80
2017,10,26,08,39,5.90
2017,10,26,08,40,5.90
2017,10,26,08,41,5.90
2017,10,26,08,42,5.90
2017,10,26,08,43,5.90
2017,10,26,08,44,6.00
2017,10,26,08,45,6.00
2017,10,26,08,46,6.00
2017,10,26,08,47,6.00
2017,10,26,08,48,6.10
2017,10,26,08,49,6.10
2017,10,26,08,50,6.10
2017,10,26,08,51,6.10
2017,10,26,08,52,6.10
2017,10,26,08,53,6.10
2017,10,26,08,54,6.10
2017,10,26,08,55,6.10
2017,10,26,08,56,6.10
2017,10,26,08,57,6.10
2017,10,26,08,58,6.10
2017,10,26,08,59,6.10
2017,10,26,09,00,6.10
2017,10,26,09,01,6.00
2017,10,26,09,02,6.00
2017,10,26,09,03,6.00
2017,10,26,09,04,6.00
2017,10,26,09,05,6.00
2017,10,26,09,06,6.00
2017,10,26,09,07,6.00
2017,10,26,09,08,6.10
2017,10,26,09,09,6.10
2017,10,26,09,10,6.10
2017,10,26,09,11,6.10
2017,10,26,09,12,6.00
2017,10,26,09,13,6.00
2017,10,26,09,14,6.00
2017,10,26,09,15,6.00
2017,10,26,09,16,6.00
2017,10,26,09,17,6.00
2017,10,26,09,18,5.90
2017,10,26,09,19,6.00
2017,10,26,09,20,6.00
2017,10,26,09,21,6.00
2017,10,26,09,22,5.90
2017,10,26,09,23,5.90
2017,10,26,09,24,5.90
2017,10,26,09,25,5.90
2017,10,26,09,26,6.00
2017,10,26,09,27,6.00
2017,10,26,09,28,6.00
2017,10,26,09,29,6.00
2017,10,26,09,30,6.00
2017,10,26,09,31,6.00
2017,10,26,09,32,6.00
2017,10,26,09,33,6.00
2017,10,26,09,34,6.00
2017,10,26,09,35,6.10
2017,10,26,09,36,6.10
2017,10,26,09,37,6.10
2017,10,26,09,38,6.10
2017,10,26,09,39,6.10
2017,10,26,09,40,6.20
2017,10,26,09,41,6.20
2017,10,26,09,42,6.20
2017,10,26,09,43,6.30
2017,10,26,09,44,6.30
2017,10,26,09,45,6.30
2017,10,26,09,46,6.30
2017,10,26,09,47,6.40
2017,10,26,09,48,6.40
2017,10,26,09,49,6.40
2017,10,26,09,50,6.50
2017,10,26,09,51,6.50
2017,10,26,09,52,6.60
2017,10,26,09,53,6.60
2017,10,26,09,54,6.70
2017,10,26,09,55,6.70
2017,10,26,09,56,6.70
2017,10,26,09,57,6.70
2017,10,26,09,58,6.70
2017,10,26,09,59,6.80
2017,10,26,10,00,6.80
2017,10,26,10,01,6.80
2017,10,26,10,02,6.80
2017,10,26,10,03,6.90
2017,10,26,10,04,6.90
2017,10,26,10,05,6.90
2017,10,26,10,06,7.00
2017,10,26,10,07,7.00
2017,10,26,10,08,7.10
2017,10,26,10,09,7.10
2017,10,26,10,10,7.10
2017,10,26,10,11,7.10
2017,10,26,10,12,7.20
2017,10,26,10,13,7.20
2017,10,26,10,14,7.30
2017,10,26,10,15,7.30
2017,10,26,10,16,7.30
2017,10,26,10,17,7.40
2017,10,26,10,18,7.40
2017,10,26,10,19,7.50
2017,10,26,10,20,7.60
2017,10,26,10,21,7.60
2017,10,26,10,22,7.70
2017,10,26,10,23,7.70
2017,10,26,10,24,7.80
2017,10,26,10,25,7.80
2017,10,26,10,26,7.90
2017,10,26,10,27,8.00
2017,10,26,10,28,8.10
2017,10,26,10,29,8.20
2017,10,26,10,30,8.30
2017,10,26,10,31,8.40
2017,10,26,10,32,8.50
2017,10,26,10,33,8.70
2017,10,26,10,34,8.80
2017,10,26,10,35,8.90
2017,10,26,10,36,9.10
2017,10,26,10,37,9.30
2017,10,26,10,38,9.40
2017,10,26,10,39,9.50
2017,10,26,10,40,9.70
2017,10,26,10,41,9.80
2017,10,26,10,42,9.90
2017,10,26,10,43,10.10
2017,10,26,10,44,10.20
2017,10,26,10,45,10.30
2017,10,26,10,46,10.40
2017,10,26,10,47,10.50
2017,10,26,10,48,10.50
2017,10,26,10,49,10.60
2017,10,26,10,50,10.70
2017,10,26,10,51,10.70
2017,10,26,10,52,10.80
2017,10,26,10,53,10.80
2017,10,26,10,54,10.90
2017,10,26,10,55,10.90
2017,10,26,10,56,11.00
2017,10,26,10,57,11.10
2017,10,26,10,58,11.20
2017,10,26,10,59,11.30
2017,10,26,11,00,11.30
2017,10,26,11,01,11.40
2017,10,26,11,02,11.40
2017,10,26,11,03,11.40
2017,10,26,11,04,11.40
2017,10,26,11,05,11.40
2017,10,26,11,06,11.40
2017,10,26,11,07,11.40
2017,10,26,11,08,11.50
2017,10,26,11,09,11.50
2017,10,26,11,10,11.60
2017,10,26,11,11,11.70
2017,10,26,11,12,11.70
2017,10,26,11,13,11.80
2017,10,26,11,14,11.80
2017,10,26,11,15,11.80
2017,10,26,11,16,11.90
2017,10,26,11,17,11.80
2017,10,26,11,18,11.80
2017,10,26,11,19,11.80
2017,10,26,11,20,11.80
2017,10,26,11,21,11.80
2017,10,26,11,22,11.70
2017,10,26,11,23,11.70
2017,10,26,11,24,11.70
2017,10,26,11,25,11.70
2017,10,26,11,26,11.80
2017,10,26,11,27,11.80
2017,10,26,11,28,11.80
2017,10,26,11,29,11.90
2017,10,26,11,30,11.90
2017,10,26,11,31,11.90
2017,10,26,11,32,11.90
2017,10,26,11,33,11.90
2017,10,26,11,34,11.80
2017,10,26,11,35,11.80
2017,10,26,11,36,11.80
2017,10,26,11,37,11.80
2017,10,26,11,38,11.80
2017,10,26,11,39,11.80
2017,10,26,11,40,11.80
2017,10,26,11,41,11.80
2017,10,26,11,42,11.80
2017,10,26,11,43,11.80
2017,10,26,11,44,11.90
2017,10,26,11,45,11.90
2017,10,26,11,46,11.90
2017,10,26,11,47,11.90
2017,10,26,11,48,11.90
2017,10,26,11,49,12.00
2017,10,26,11,50,12.00
2017,10,26,11,51,12.10
2017,10,26,11,52,12.10
2017,10,26,11,53,12.10
2017,10,26,11,54,12.10
2017,10,26,11,55,12.10
2017,10,26,11,56,12.10
2017,10,26,11,57,12.10
2017,10,26,11,58,12.10
2017,10,26,11,59,12.00
2017,10,26,12,00,12.00
2017,10,26,12,01,12.00
2017,10,26,12,02,11.90
2017,10,26,12,03,11.90
2017,10,26,12,04,11.90
2017,10,26,12,05,11.90
2017,10,26,12,06,11.90
2017,10,26,12,07,11.90
2017,10,26,12,08,11.90
2017,10,26,12,09,11.90
2017,10,26,12,10,11.90
2017,10,26,12,11,11.90
2017,10,26,12,12,11.90
2017,10,26,12,13,11.90
2017,10,26,12,14,11.90
2017,10,26,12,15,11.80
2017,10,26,12,16,11.80
2017,10,26,12,17,11.80
2017,10,26,12,18,11.80
2017,10,26,12,19,11.80
2017,10,26,12,20,11.80
2017,10,26,12,21,11.80
2017,10,26,12,22,11.80
2017,10,26,12,23,11.90
2017,10,26,12,24,12.00
2017,10,26,12,25,12.00
2017,10,26,12,26,12.10
2017,10,26,12,27,12.10
2017,10,26,12,28,12.20
2017,10,26,12,29,12.30
2017,10,26,12,30,12.30
2017,10,26,12,31,12.40
2017,10,26,12,32,12.50
2017,10,26,12,33,12.50
2017,10,26,12,34,12.60
2017,10,26,12,35,12.60
2017,10,26,12,36,12.70
2017,10,26,12,37,12.70
2017,10,26,12,38,12.70
2017,10,26,12,39,12.80
2017,10,26,12,40,12.80
2017,10,26,12,41,12.80
2017,10,26,12,42,12.80
2017,10,26,12,43,12.70
2017,10,26,12,44,12.70
2017,10,26,12,45,12.70
2017,10,26,12,46,12.60
2017,10,26,12,47,12.70
2017,10,26,12,48,12.70
2017,10,26,12,49,12.70
2017,10,26,12,50,12.70
2017,10,26,12,51,12.60
2017,10,26,12,52,12.70
2017,10,26,12,53,12.70
2017,10,26,12,54,12.70
2017,10,26,12,55,12.70
2017,10,26,12,56,12.70
2017,10,26,12,57,12.70
2017,10,26,12,58,12.70
2017,10,26,12,59,12.70
2017,10,26,13,00,12.80
2017,10,26,13,01,12.80
2017,10,26,13,02,12.80
2017,10,26,13,03,12.90
2017,10,26,13,04,12.90
2017,10,26,13,05,12.90
2017,10,26,13,06,12.90
2017,10,26,13,07,12.80
2017,10,26,13,08,12.80
2017,10,26,13,09,12.70
2017,10,26,13,10,12.70
2017,10,26,13,11,12.60
2017,10,26,13,12,12.50
2017,10,26,13,13,12.50
2017,10,26,13,14,12.40
2017,10,26,13,15,12.40
2017,10,26,13,16,12.40
2017,10,26,13,17,12.40
2017,10,26,13,18,12.40
2017,10,26,13,19,12.50
2017,10,26,13,20,12.50
2017,10,26,13,21,12.50
2017,10,26,13,22,12.50
2017,10,26,13,23,12.50
2017,10,26,13,24,12.50
2017,10,26,13,25,12.50
2017,10,26,13,26,12.50
2017,10,26,13,27,12.50
2017,10,26,13,28,12.50
2017,10,26,13,29,12.50
2017,10,26,13,30,12.40
2017,10,26,13,31,12.40
2017,10,26,13,32,12.40
2017,10,26,13,33,12.40
2017,10,26,13,34,12.40
2017,10,26,13,35,12.40
2017,10,26,13,36,12.40
2017,10,26,13,37,12.50
2017,10,26,13,38,12.50
2017,10,26,13,39,12.50
2017,10,26,13,40,12.50
2017,10,26,13,41,12.50
2017,10,26,13,42,12.60
2017,10,26,13,43,12.60
2017,10,26,13,44,12.60
2017,10,26,13,45,12.60
2017,10,26,13,46,12.60
2017,10,26,13,47,12.60
2017,10,26,13,48,12.60
2017,10,26,13,49,12.60
2017,10,26,13,50,12.60
2017,10,26,13,51,12.60
2017,10,26,13,52,12.70
2017,10,26,13,53,12.70
2017,10,26,13,54,12.70
2017,10,26,13,55,12.70
2017,10,26,13,56,12.70
2017,10,26,13,57,12.60
2017,10,26,13,58,12.60
2017,10,26,13,59,12.60
2017,10,26,14,00,12.50
2017,10,26,14,01,12.50
2017,10,26,14,02,12.40
2017,10,26,14,03,12.40
2017,10,26,14,04,12.40
2017,10,26,14,05,12.40
2017,10,26,14,06,12.40
2017,10,26,14,07,12.40
2017,10,26,14,08,12.40
2017,10,26,14,09,12.40
2017,10,26,14,10,12.30
2017,10,26,14,11,12.30
2017,10,26,14,12,12.30
2017,10,26,14,13,12.30
2017,10,26,14,14,12.30
2017,10,26,14,15,12.30
2017,10,26,14,16,12.30
2017,10,26,14,17,12.30
2017,10,26,14,18,12.30
2017,10,26,14,19,12.30
2017,10,26,14,20,12.30
2017,10,26,14,21,12.30
2017,10,26,14,22,12.30
2017,10,26,14,23,12.30
2017,10,26,14,24,12.30
2017,10,26,14,25,12.30
2017,10,26,14,26,12.30
2017,10,26,14,27,12.30
2017,10,26,14,28,12.30
2017,10,26,14,29,12.30
2017,10,26,14,30,12.30
2017,10,26,14,31,12.30
2017,10,26,14,32,12.30
2017,10,26,14,33,12.30
2017,10,26,14,34,12.30
2017,10,26,14,35,12.30
2017,10,26,14,36,12.30
2017,10,26,14,37,12.30
2017,10,26,14,38,12.30
2017,10,26,14,39,12.30
2017,10,26,14,40,12.30
2017,10,26,14,41,12.40
2017,10,26,14,42,12.40
2017,10,26,14,43,12.40
2017,10,26,14,44,12.40
2017,10,26,14,45,12.40
2017,10,26,14,46,12.40
2017,10,26,14,47,12.50
2017,10,26,14,48,12.50
2017,10,26,14,49,12.60
2017,10,26,14,50,12.60
2017,10,26,14,51,12.60
2017,10,26,14,52,12.60
2017,10,26,14,53,12.60
2017,10,26,14,54,12.60
2017,10,26,14,55,12.60
2017,10,26,14,56,12.60
2017,10,26,14,57,12.60
2017,10,26,14,58,12.60
2017,10,26,14,59,12.60
2017,10,26,15,00,12.60
2017,10,26,15,01,12.60
2017,10,26,15,02,12.60
2017,10,26,15,03,12.60
2017,10,26,15,04,12.60
2017,10,26,15,05,12.60
2017,10,26,15,06,12.60
2017,10,26,15,07,12.60
2017,10,26,15,08,12.60
2017,10,26,15,09,12.70
2017,10,26,15,10,12.70
2017,10,26,15,11,12.70
2017,10,26,15,12,12.70
2017,10,26,15,13,12.70
2017,10,26,15,14,12.70
2017,10,26,15,15,12.70
2017,10,26,15,16,12.70
2017,10,26,15,17,12.70
2017,10,26,15,18,12.80
2017,10,26,15,19,12.80
2017,10,26,15,20,12.80
2017,10,26,15,21,12.90
2017,10,26,15,22,13.00
2017,10,26,15,23,13.00
2017,10,26,15,24,13.10
2017,10,26,15,25,13.10
2017,10,26,15,26,13.10
2017,10,26,15,27,13.10
2017,10,26,15,28,13.10
2017,10,26,15,29,13.10
2017,10,26,15,30,13.10
2017,10,26,15,31,13.10
2017,10,26,15,32,13.20
2017,10,26,15,33,13.20
2017,10,26,15,34,13.10
2017,10,26,15,35,13.20
2017,10,26,15,36,13.10
2017,10,26,15,37,13.10
2017,10,26,15,38,13.20
2017,10,26,15,39,13.20
2017,10,26,15,40,13.20
2017,10,26,15,41,13.20
2017,10,26,15,42,13.20
2017,10,26,15,43,13.20
2017,10,26,15,44,13.20
2017,10,26,15,45,13.20
2017,10,26,15,46,13.20
2017,10,26,15,47,13.30
2017,10,26,15,48,13.30
2017,10,26,15,49,13.30
2017,10,26,15,50,13.30
2017,10,26,15,51,13.30
2017,10,26,15,52,13.30
2017,10,26,15,53,13.30
2017,10,26,15,54,13.30
2017,10,26,15,55,13.40
2017,10,26,15,56,13.40
2017,10,26,15,57,13.40
2017,10,26,15,58,13.40
2017,10,26,15,59,13.40
2017,10,26,16,00,13.40
2017,10,26,16,01,13.40
2017,10,26,16,02,13.40
2017,10,26,16,03,13.30
2017,10,26,16,04,13.30
2017,10,26,16,05,13.30
2017,10,26,16,06,13.30
2017,10,26,16,07,13.30
2017,10,26,16,08,13.30
2017,10,26,16,09,13.20
2017,10,26,16,10,13.20
2017,10,26,16,11,13.20
2017,10,26,16,12,13.20
2017,10,26,16,13,13.10
2017,10,26,16,14,13.10
2017,10,26,16,15,13.10
2017,10,26,16,16,13.10
2017,10,26,16,17,13.00
2017,10,26,16,18,13.00
2017,10,26,16,19,12.90
2017,10,26,16,20,12.90
2017,10,26,16,21,12.90
2017,10,26,16,22,12.90
2017,10,26,16,23,12.90
2017,10,26,16,24,12.90
2017,10,26,16,25,12.90
2017,10,26,16,26,12.80
2017,10,26,16,27,12.80
2017,10,26,16,28,12.80
2017,10,26,16,29,12.80
2017,10,26,16,30,12.80
2017,10,26,16,31,12.80
2017,10,26,16,32,12.80
2017,10,26,16,33,12.80
2017,10,26,16,34,12.80
2017,10,26,16,35,12.80
2017,10,26,16,36,12.80
2017,10,26,16,37,12.80
2017,10,26,16,38,12.80
2017,10,26,16,39,12.80
2017,10,26,16,40,12.80
2017,10,26,16,41,12.70
2017,10,26,16,42,12.70
2017,10,26,16,43,12.70
2017,10,26,16,44,12.70
2017,10,26,16,45,12.70
2017,10,26,16,46,12.70
2017,10,26,16,47,12.70
2017,10,26,16,48,12.70
2017,10,26,16,49,12.70
2017,10,26,16,50,12.70
2017,10,26,16,51,12.60
2017,10,26,16,52,12.60
2017,10,26,16,53,12.60
2017,10,26,16,54,12.60
2017,10,26,16,55,12.60
2017,10,26,16,56,12.60
2017,10,26,16,57,12.60
2017,10,26,16,58,12.60
2017,10,26,16,59,12.60
2017,10,26,17,00,12.60
2017,10,26,17,01,12.60
2017,10,26,17,02,12.60
2017,10,26,17,03,12.60
2017,10,26,17,04,12.60
2017,10,26,17,05,12.60
2017,10,26,17,06,12.50
2017,10,26,17,07,12.50
2017,10,26,17,08,12.50
2017,10,26,17,09,12.50
2017,10,26,17,10,12.50
2017,10,26,17,11,12.50
2017,10,26,17,12,12.40
2017,10,26,17,13,12.40
2017,10,26,17,14,12.40
2017,10,26,17,15,12.40
2017,10,26,17,16,12.40
2017,10,26,17,17,12.40
2017,10,26,17,18,12.40
2017,10,26,17,19,12.40
2017,10,26,17,20,12.40
2017,10,26,17,21,12.40
2017,10,26,17,22,12.40
2017,10,26,17,23,12.30
2017,10,26,17,24,12.30
2017,10,26,17,25,12.30
2017,10,26,17,26,12.30
2017,10,26,17,27,12.30
2017,10,26,17,28,12.30
2017,10,26,17,29,12.30
2017,10,26,17,30,12.30
2017,10,26,17,31,12.30
2017,10,26,17,32,12.30
2017,10,26,17,33,12.30
2017,10,26,17,34,12.30
2017,10,26,17,35,12.20
2017,10,26,17,36,12.20
2017,10,26,17,37,12.20
2017,10,26,17,38,12.20
2017,10,26,17,39,12.20
2017,10,26,17,40,12.20
2017,10,26,17,41,12.20
2017,10,26,17,42,12.10
2017,10,26,17,43,12.10
2017,10,26,17,44,12.10
2017,10,26,17,45,12.10
2017,10,26,17,46,12.10
2017,10,26,17,47,12.10